Location: 10033 Water Well
(34.0865°N, 106.8959°W)
Time: 15:27:41
(UTC+00:00)

IUS-18 SRM-1 - Pass Details

Date: 13 January 2026
Orbit: 306 x 19545 km, 28.0° (Epoch: 11 February)

Event Time Altitude Azimuth Distance (km) Brightness Sun altitude
Rises 01:45:24 0° 236° (SW) 2,548 7.1 -17.7°
Reaches altitude 10° 01:46:49 10° 227° (SW) 1,978 6.1 -18.0°
Maximum altitude 01:50:46 44° 153° (SSE) 1,534 4.4 -18.7°
Enters shadow 01:57:18 23° 97° (E) 3,934 6.0 -20.1°
